Location: Central Falls
(41.8900°N, 71.3929°W)
Time: 13:08:56
(UTC+00:00)

A-11 Canister half - Pass Details

Date: 10 December 2023
Orbit: 1526 x 1682 km, 47.3° (Epoch: 20 February)

Event Time Altitude Azimuth Distance (km) Brightness Sun altitude
Rises 22:10:30 0° 231° (SW) 4,894 13.3 -10.2°
Reaches altitude 10° 22:13:38 10° 230° (SW) 3,920 12.4 -10.7°
Maximum altitude 22:23:42 75° 148° (SSE) 1,733 9.2 -12.5°
Enters shadow 22:32:01 17° 66° (ENE) 3,394 10.1 -14.0°
Drops below altitude 10° 22:33:48 10° 65° (ENE) 3,931 - -14.3°
Sets 22:36:56 0° 64° (ENE) 4,909 - -14.8°
